DW9672 Weather Reports


Display with metric or nautical units.
time (UTC)temp
F
wind
direction
speed
MPH
gust
MPH
rain 1hr
in
rain 24hr
in
rain mn
in
humidity
%
barometer
mb
20260510073029 49 86 0.0 0.0 0.00 0.00 0.00 78 1015.5
20260510071536 49 86 0.0 0.0 0.00 0.00 0.00 76 1015.3
20260510070007 50 86 0.0 0.0 0.00 0.00 0.00 75 1015.2
20260510064507 51 86 0.0 0.0 0.00 0.00 0.00 73 1015.0
20260510063045 52 86 0.0 0.0 0.00 0.00 0.00 70 1014.7
20260510061548 53 86 0.0 0.0 0.00 0.00 0.00 67 1014.4
20260510060021 53 87 0.0 2.0 0.00 0.00 0.00 67 1014.3
20260510054518 54 121 1.0 4.0 0.00 0.00 0.00 67 1014.3
20260510053059 55 24 0.0 0.0 0.00 0.00 0.00 67 1013.9
20260510051558 55 24 0.0 0.0 0.00 0.00 0.00 62 1013.9
20260510050036 56 24 0.0 0.0 0.00 0.00 0.00 63 1013.6
20260510044535 56 24 0.0 0.0 0.00 0.00 0.00 63 1013.3
20260510043020 56 24 0.0 0.0 0.00 0.00 0.00 63 1013.2
20260510041511 58 24 0.0 0.0 0.00 0.00 0.00 63 1013.1
20260510040108 59 24 0.0 0.0 0.00 0.00 0.00 61 1012.8
20260510034547 60 24 0.0 0.0 0.00 0.00 0.00 57 1012.6
20260510033102 61 24 0.0 5.0 0.00 0.00 0.00 56 1012.3
20260510031538 61 24 0.0 4.0 0.00 0.00 0.00 58 1012.1
20260510030023 62 10 0.0 2.0 0.00 0.00 0.00 59 1011.8
20260510024501 62 5 0.0 4.0 0.00 0.00 0.00 58 1011.3
20260510023057 63 50 0.0 5.0 0.00 0.00 0.00 58 1010.8
20260510021538 63 40 0.0 3.0 0.00 0.00 0.00 56 1010.5
20260510020034 64 36 0.0 4.0 0.00 0.00 0.00 55 1010.2
20260510014515 65 19 0.0 5.0 0.00 0.00 0.00 53 1009.7
20260510013014 65 40 2.0 4.0 0.00 0.00 0.00 52 1009.6
20260510011557 66 15 2.0 8.0 0.00 0.00 0.00 52 1009.4
20260510010053 66 30 2.0 8.0 0.00 0.00 0.00 51 1009.1
20260510004545 67 13 4.0 10.0 0.00 0.00 0.00 48 1009.1
20260510003100 67 69 5.0 11.0 0.00 0.00 0.00 47 1008.7
20260510001540 67 43 3.0 12.0 0.00 0.00 0.00 48 1008.6
20260510000040 68 342 4.0 9.0 0.00 0.00 0.00 48 1008.4
20260509234549 68 26 4.0 10.0 0.00 0.00 0.00 48 1008.3
20260509233038 68 19 1.0 10.0 0.00 0.00 0.00 47 1008.5
20260509231547 69 339 2.0 9.0 0.00 0.00 0.00 46 1008.4
20260509230036 69 347 2.0 9.0 0.00 0.00 0.00 44 1008.2
20260509224518 70 30 2.0 7.0 0.00 0.00 0.00 42 1008.0
20260509223016 71 19 3.0 11.0 0.00 0.00 0.00 40 1007.9
20260509221501 72 316 5.0 14.0 0.00 0.00 0.00 38 1007.7
20260509220100 72 35 4.0 10.0 0.00 0.00 0.00 37 1007.5
20260509214542 72 291 3.0 10.0 0.00 0.00 0.00 36 1007.3
20260509213043 72 53 3.0 13.0 0.00 0.00 0.00 36 1007.5
20260509211541 72 292 6.0 18.0 0.00 0.00 0.00 34 1007.5
20260509210045 73 342 6.0 19.0 0.00 0.00 0.00 34 1007.2
20260509204541 74 342 4.0 16.0 0.00 0.00 0.00 34 1007.0
20260509203040 75 343 4.0 14.0 0.00 0.00 0.00 34 1007.0
20260509201541 75 19 7.0 14.0 0.00 0.00 0.00 32 1006.9
20260509200041 74 305 5.0 17.0 0.00 0.00 0.00 33 1006.7
20260509194540 74 11 3.0 13.0 0.00 0.00 0.00 34 1006.9
20260509193040 74 344 6.0 14.0 0.00 0.00 0.00 32 1006.8
20260509191539 75 321 6.0 15.0 0.00 0.00 0.00 31 1006.8
20260509190040 75 348 5.0 15.0 0.00 0.00 0.00 33 1006.7
20260509184535 74 355 3.0 13.0 0.00 0.00 0.00 36 1006.9
20260509183035 73 29 6.0 13.0 0.00 0.00 0.00 39 1006.8
20260509181510 72 265 3.0 7.0 0.00 0.00 0.00 48 1006.9
20260509180008 71 349 2.0 8.0 0.00 0.00 0.00 49 1006.9
20260509174549 71 13 3.0 10.0 0.00 0.00 0.00 52 1006.9
20260509173046 71 19 5.0 12.0 0.00 0.00 0.00 49 1006.7
20260509171527 70 346 1.0 10.0 0.00 0.00 0.00 53 1006.9
20260509170023 69 238 1.0 9.0 0.00 0.00 0.00 57 1007.1
20260509164511 68 80 1.0 10.0 0.00 0.00 0.00 60 1007.0
20260509163005 67 259 3.0 7.0 0.00 0.00 0.00 62 1006.9
20260509161502 66 270 2.0 10.0 0.00 0.00 0.00 67 1006.7
20260509160100 65 227 1.0 9.0 0.00 0.00 0.00 72 1006.9
20260509154557 64 222 3.0 9.0 0.00 0.00 0.00 74 1006.9
20260509153051 63 264 1.0 9.0 0.00 0.00 0.00 76 1007.2
20260509151549 63 236 1.0 8.0 0.00 0.00 0.00 77 1007.0
20260509150045 62 296 2.0 10.0 0.00 0.00 0.00 81 1007.1
20260509144534 61 307 3.0 10.0 0.00 0.00 0.00 82 1007.1
20260509143024 61 285 2.0 7.0 0.00 0.00 0.00 84 1007.2
20260509141506 60 261 1.0 8.0 0.00 0.00 0.00 85 1007.0
20260509140001 59 360 2.0 10.0 0.00 0.00 0.00 90 1007.1
20260509134541 57 281 1.0 7.0 0.00 0.00 0.00 94 1006.8
20260509133040 56 216 0.0 7.0 0.00 0.00 0.00 96 1006.9
20260509131521 55 134 0.0 6.0 0.00 0.00 0.00 98 1007.0
20260509130021 54 61 0.0 7.0 0.00 0.00 0.00 98 1007.1
20260509124503 53 195 2.0 8.0 0.00 0.00 0.00 98 1007.3
20260509123003 52 205 0.0 7.0 0.00 0.00 0.00 98 1007.3
20260509121545 52 229 1.0 4.0 0.00 0.00 0.00 98 1007.3
20260509120051 52 183 0.0 7.0 0.00 0.00 0.00 98 1007.1
20260509114526 51 263 0.0 6.0 0.00 0.00 0.00 98 1007.0
20260509113026 51 177 1.0 7.0 0.00 0.00 0.00 98 1006.7
20260509111506 51 267 2.0 6.0 0.00 0.00 0.00 97 1006.5
20260509110005 51 217 0.0 7.0 0.00 0.02 0.00 97 1006.4
20260509104549 51 225 0.0 5.0 0.00 0.02 0.00 97 1006.5
20260509103050 51 250 3.0 7.0 0.00 0.02 0.00 98 1006.4
20260509101534 50 234 1.0 6.0 0.00 0.02 0.00 97 1006.6
20260509100028 50 211 1.0 5.0 0.00 0.05 0.00 97 1006.8
20260509094509 49 196 0.0 6.0 0.00 0.05 0.00 97 1007.0
20260509093009 50 227 1.0 4.0 0.00 0.05 0.00 97 1007.1
20260509091550 50 281 0.0 2.0 0.00 0.05 0.00 97 1007.1
20260509090050 50 212 0.0 3.0 0.00 0.09 0.00 97 1006.9
20260509084543 50 213 0.0 4.0 0.00 0.09 0.00 97 1006.9
20260509083030 50 186 0.0 6.0 0.00 0.09 0.00 97 1006.7
20260509081515 50 210 0.0 3.0 0.00 0.09 0.00 96 1006.7
20260509080026 49 211 0.0 0.0 0.00 0.11 0.00 96 1006.9
20260509074552 49 211 0.0 0.0 0.00 0.11 0.00 96 1007.0